This is the latest recevied weather packets stored in our database for station/object KG5CK-1. If no packets are shown the sender has not sent any weather packets the latest 1 day(s).
| Time | Temp. | Humidity | Pressure | Rain* | Wind** | Luminosity | Snow |
|---|---|---|---|---|---|---|---|
| 1778057463 | 14.44° C | 80% | 1005.8 hPa | 0 mm | 0.89 m/s, 34° | - | - |
| 1778057283 | 13.89° C | 80% | 1005.9 hPa | 0 mm | 0.89 m/s, 34° | - | - |
| 1778057163 | 13.89° C | 80% | 1005.9 hPa | 0 mm | 0.89 m/s, 34° | - | - |
| 1778057103 | 14.44° C | 80% | 1006 hPa | 0 mm | 0.45 m/s, 46° | - | - |
| 1778057043 | 14.44° C | 80% | 1006 hPa | 0 mm | 0.45 m/s, 46° | - | - |
| 1778056983 | 14.44° C | 80% | 1006 hPa | 0 mm | 0.45 m/s, 46° | - | - |
| 1778056923 | 14.44° C | 80% | 1006 hPa | 0 mm | 0.45 m/s, 46° | - | - |
| 1778056863 | 14.44° C | 80% | 1006 hPa | 0 mm | 0.45 m/s, 46° | - | - |
| 1778056683 | 14.44° C | 80% | 1006 hPa | 0 mm | 0.89 m/s, 51° | - | - |
| 1778056623 | 14.44° C | 80% | 1006 hPa | 0 mm | 0.89 m/s, 51° | - | - |
| 1778056563 | 14.44° C | 80% | 1006 hPa | 0 mm | 0.89 m/s, 51° | - | - |
| 1778056443 | 14.44° C | 80% | 1006 hPa | 0 mm | 0.45 m/s, 42° | - | - |
| 1778056263 | 14.44° C | 80% | 1006 hPa | 0 mm | 0.45 m/s, 42° | - | - |
| 1778055963 | 14.44° C | 80% | 1005.9 hPa | 0 mm | 0.89 m/s, 43° | - | - |
| 1778055843 | 14.44° C | 79% | 1005.8 hPa | 0 mm | 0.89 m/s, 29° | - | - |
| 1778055723 | 14.44° C | 79% | 1005.8 hPa | 0 mm | 0.89 m/s, 29° | - | - |
| 1778055483 | 14.44° C | 79% | 1005.5 hPa | 0 mm | 0 m/s | - | - |
| 1778055183 | 14.44° C | 79% | 1005.4 hPa | 0 mm | 0.45 m/s, 42° | - | - |
| 1778055123 | 14.44° C | 79% | 1005.4 hPa | 0 mm | 0.45 m/s, 42° | - | - |
| 1778054943 | 14.44° C | 79% | 1005.6 hPa | 0 mm | 1.34 m/s, 32° | - | - |
| 1778054643 | 14.44° C | 79% | 1005.4 hPa | 0 mm | 0.89 m/s, 36° | - | - |
| 1778054463 | 14.44° C | 79% | 1005.4 hPa | 0 mm | 0.89 m/s, 36° | - | - |
| 1778054343 | 14.44° C | 79% | 1005.7 hPa | 0 mm | 1.34 m/s, 19° | - | - |
| 1778054223 | 14.44° C | 79% | 1005.7 hPa | 0 mm | 1.34 m/s, 19° | - | - |
| 1778054103 | 14.44° C | 79% | 1005.5 hPa | 0 mm | 1.79 m/s, 14° | - | - |
* Rain latest hour (hover to see other rain measurements)
** Current wind speed in m/s (hover to see current wind gust speed)